User: anonymous   Login
Location: Unspecified
(0.0000°N, 0.0000°E)
Time: 18:09:46
(UTC+00:00)
Language:

JB-3 - Orbit

View from above orbital plane
View from above orbital plane
View from above satellite
View from above satellite

Ground track
Ground track

The orbit data is extracted from the following two-line orbital elements,

1 28470U 04044A   18114.88882249  .00482673  00000-0  30781-1 0  9997
2 28470  97.4002  28.2285 0044064   6.2110 353.9654 15.05556937739741
Epoch (UTC): 24 April 2018 21:19:54
Eccentricity: 0.0044064
inclination: 97.4002°
perigee height: 519 km
apogee height: 580 km
right ascension of ascending node: 28.2285°
argument of perigee: 6.2110°
revolutions per day: 15.05556937
mean anomaly at epoch: 353.9654°
orbit number at epoch: 73974

The dashed part of the orbit path shows where the satellite is in the earth's shadow,  

DLR